CW9809 Weather Reports


time (UTC)temp
F
wind
direction
speed
knots
gust
knots
rain 1hr
in
rain 24hr
in
rain mn
in
humidity
%
barometer
mb
20260902141527 64 67 0.0 0.0 0.00 0.81 0.01 93 1022.8
20260902140030 63 67 0.0 0.0 0.00 0.82 0.01 94 1022.5
20260902134538 63 67 0.0 0.0 0.00 0.83 0.01 95 1022.5
20260902133021 62 109 0.0 0.0 0.00 0.84 0.01 95 1022.2
20260902131524 62 74 0.0 0.0 0.00 0.88 0.01 95 1022.0
20260902130026 61 74 0.0 0.0 0.00 0.88 0.01 95 1021.9
20260902124528 61 79 0.0 0.0 0.00 0.88 0.01 95 1021.8
20260902123038 61 74 0.0 0.0 0.00 0.88 0.01 96 1021.8
20260902121518 61 71 0.0 0.0 0.00 0.89 0.01 95 1022.1
20260902120023 61 71 0.0 0.0 0.00 0.89 0.01 95 1022.1
20260902114535 60 71 0.0 0.0 0.00 0.89 0.01 96 1022.3
20260902113041 60 37 0.0 0.0 0.00 0.89 0.01 96 1022.2
20260902111516 60 37 0.0 0.0 0.00 0.89 0.01 96 1022.2
20260902110008 60 38 0.0 0.0 0.00 0.89 0.01 95 1022.2
20260902104509 60 38 0.0 0.0 0.00 0.89 0.01 95 1022.2
20260902103015 60 38 0.0 0.0 0.00 0.89 0.01 95 1021.8
20260902101513 60 37 0.0 0.0 0.00 0.89 0.01 96 1021.8
20260902100013 60 37 0.0 0.0 0.00 0.89 0.01 96 1021.7
20260902094508 60 38 0.0 0.0 0.00 0.89 0.01 95 1021.7
20260902093012 60 38 0.0 0.0 0.00 0.89 0.01 96 1021.4
20260902091505 60 38 0.0 0.0 0.00 0.89 0.01 96 1021.1
20260902090010 60 37 0.0 0.0 0.00 0.89 0.01 96 1020.8
20260902084517 60 37 0.0 0.0 0.00 0.89 0.01 96 1020.9
20260902083014 60 38 0.0 0.0 0.00 0.91 0.01 96 1020.9
20260902081516 60 38 0.0 0.0 0.00 0.92 0.01 96 1020.8
20260902080011 60 38 0.0 0.0 0.00 0.92 0.01 96 1020.7
20260902074511 60 38 0.0 0.0 0.00 0.92 0.01 96 1020.6
20260902073014 60 37 0.0 0.0 0.00 0.93 0.01 95 1020.6
20260902071514 60 38 0.0 0.0 0.00 0.93 0.01 95 1020.4
20260902070015 60 38 0.0 0.0 0.00 0.93 0.01 95 1020.6
20260902064509 61 38 0.0 0.0 0.00 0.93 0.01 95 1020.5
20260902063015 61 38 0.0 0.0 0.00 0.93 0.01 95 1020.6
20260902061516 61 37 0.0 0.0 0.00 0.93 0.01 95 1020.4
20260902060021 61 38 0.0 0.0 0.00 0.93 0.01 96 1020.4
20260902054515 61 37 0.0 0.0 0.01 0.93 0.01 96 1020.5
20260902053014 61 37 0.0 0.0 0.01 0.93 0.01 96 1020.6
20260902051518 61 36 0.0 0.0 0.01 0.93 0.01 96 1020.6
20260902050021 61 36 0.0 0.0 0.01 0.93 0.01 96 1020.3
20260902044520 61 36 0.0 0.0 0.00 0.92 0.00 95 1020.2
20260902043022 61 36 0.0 0.0 0.00 0.92 0.00 95 1020.2
20260902041524 61 33 0.0 0.0 0.00 0.92 0.00 95 1020.2
20260902040024 61 26 0.0 0.0 0.00 0.92 0.00 95 1020.2
20260902034526 61 21 0.0 0.0 0.00 0.92 0.92 95 1020.0
20260902033026 61 13 0.0 0.0 0.00 0.92 0.92 95 1019.9
20260902031524 61 34 0.0 0.0 0.00 0.92 0.92 95 1019.9
20260902030026 61 34 0.0 0.0 0.00 0.92 0.92 95 1019.8
20260902024522 61 34 0.0 0.0 0.00 0.92 0.92 95 1019.5
20260902023037 61 34 0.0 0.0 0.00 0.92 0.92 95 1019.5
20260902021523 61 34 0.0 0.0 0.00 0.92 0.92 95 1019.5
20260902020028 61 34 0.0 0.0 0.00 0.92 0.92 95 1019.5
20260902014539 61 42 0.0 0.0 0.00 0.92 0.92 95 1019.4
20260902013026 61 42 0.0 0.0 0.00 0.92 0.92 95 1019.2
20260902011540 61 41 0.0 0.0 0.00 0.92 0.92 95 1019.1
20260902010027 61 37 0.0 0.0 0.00 0.92 0.92 95 1019.0
20260902004531 61 37 0.0 0.0 0.00 0.92 0.92 95 1018.9
20260902003031 61 51 0.0 0.0 0.00 0.92 0.92 95 1018.8
20260902001527 61 50 0.0 0.0 0.00 0.92 0.92 94 1018.5
20260902000033 61 37 0.0 0.0 0.00 0.92 0.92 94 1018.3
20260901234532 61 35 0.0 0.0 0.00 0.92 0.92 94 1018.5
20260901233030 62 23 0.0 0.0 0.01 0.92 0.92 94 1018.3
20260901231530 62 213 0.0 0.0 0.01 0.92 0.92 94 1018.4
20260901230027 62 117 0.0 0.0 0.06 0.92 0.92 94 1018.2
20260901224531 62 246 0.0 0.0 0.54 0.92 0.92 94 1018.1
20260901223029 63 80 0.0 0.0 0.60 0.91 0.91 94 1018.1
20260901221536 64 78 0.0 0.0 0.63 0.91 0.91 94 1017.9
20260901220030 64 62 0.0 0.0 0.64 0.86 0.86 93 1017.9
20260901214540 65 345 0.0 0.0 0.21 0.38 0.38 93 1018.0
20260901213006 66 81 0.0 0.0 0.18 0.31 0.31 93 1017.2
20260901211512 67 32 0.0 0.0 0.15 0.28 0.28 93 1017.1
20260901210018 68 27 0.0 0.0 0.09 0.22 0.22 93 1017.0
20260901204532 70 38 0.0 0.0 0.04 0.17 0.17 91 1016.6
20260901203031 73 209 0.0 0.0 0.00 0.13 0.13 92 1016.5
20260901201533 73 209 0.0 0.0 0.00 0.13 0.13 92 1016.3
20260901200016 73 209 0.0 0.0 0.00 0.13 0.13 92 1016.3
20260901194519 73 209 0.0 0.0 0.00 0.13 0.13 93 1016.3
20260901193026 73 209 0.0 0.0 0.00 0.13 0.13 93 1016.3
20260901191539 73 209 0.0 0.0 0.00 0.13 0.13 94 1016.2
20260901190036 73 209 0.0 0.0 0.00 0.13 0.13 94 1016.2
20260901184516 73 209 0.0 0.0 0.00 0.13 0.13 94 1016.3
20260901183036 73 209 0.0 0.0 0.00 0.13 0.13 95 1016.3
20260901181530 73 209 0.0 0.0 0.00 0.13 0.13 95 1016.4
20260901180030 72 209 0.0 0.0 0.00 0.13 0.13 95 1016.4
20260901174533 72 209 0.0 0.0 0.00 0.13 0.13 95 1016.5
20260901173026 72 209 0.0 0.0 0.00 0.13 0.13 95 1016.5
20260901171525 71 209 0.0 0.0 0.00 0.13 0.13 96 1016.4
20260901170029 70 209 0.0 0.0 0.00 0.13 0.13 95 1016.3
20260901164531 70 209 0.0 0.0 0.00 0.13 0.13 95 1016.5
20260901163034 70 209 0.0 0.0 0.00 0.13 0.13 95 1016.6
20260901161518 70 209 0.0 0.0 0.00 0.13 0.13 95 1016.8
20260901160033 70 209 0.0 0.0 0.00 0.13 0.13 95 1016.8
20260901154540 70 209 0.0 0.0 0.00 0.13 0.13 96 1017.0
20260901153042 70 209 0.0 0.0 0.00 0.13 0.13 96 1017.1
20260901151533 70 209 0.0 0.0 0.01 0.13 0.13 96 1017.1
20260901150024 70 209 0.0 0.0 0.02 0.13 0.13 95 1017.1
20260901144534 69 209 0.0 0.0 0.03 0.13 0.13 95 1017.2
20260901143036 69 209 0.0 0.0 0.04 0.13 0.13 96 1017.5